sat.trackr.live / text

‹ back to catalog

ONEWEB-0381

NORAD 49307 · 2021-090AE

PAYLOAD ACTIVE UNKNOWN

§ Identity

Operator
Country
UK
Launch date
2021-10-14
Launch site
VOSTO
Launch vehicle
Mass (kg)
RCS (m²)

Purposes: comms

External: N2YO · Heavens-Above · Gunter

§ Orbital elements

Epoch: 2026-09-09T22:20:21.662592Z

Period
109.03 min
Inclination
87.9137°
Eccentricity
0.0002058
Mean motion
13.20771844 rev/d
Perigee alt
1,180.2 km
Apogee alt
1,183.3 km
Semi-major
7,559.9 km
B*
7.9642e-6
RAAN
257.5374°
Arg perigee
97.9137°
Mean anomaly
262.2230°
Rev number
24,101

§ Raw data

ONEWEB-03811 49307U 21090AE  26252.93080628  .00000016  00000+0  79642-5 0  99972 49307  87.9137 257.5374 0002058  97.9137 262.2230 13.20771844241016

JSON: /api/v1/satellites/49307 · /tle

For live sub-satellite position, see the globe view (requires WebGL).

§ Visibility from observer

Set your observer location to see the next 7 days of passes ≥ 10°. The values pass through the URL so the page stays shareable.

No JS? Fill the form by hand. The geolocation button needs JavaScript.